Weather History for Garden City, KS

Change the Weather History Date:

Tuesday, March 25, 2014

  Actual Average Record
Temperature  
Mean Temperature 39 °F 46 °F  
Max Temperature 56 °F 61 °F 92 °F (1976)
Min Temperature 21 °F 32 °F 5 °F (1955)
Degree Days  
Heating Degree Days 26 19  
Month to date heating degree days 659 556  
Since 1 July heating degree days 4835 4580  
Cooling Degree Days 0 0  
Month to date cooling degree days 0 0  
Year to date cooling degree days 0 0  
Moisture  
Dew Point 19 °F    
Average Humidity 50    
Maximum Humidity 74    
Minimum Humidity 26    
Precipitation  
Precipitation 0.00 in 0.06 in 0.57 in (1981)
Month to date precipitation 0.04 1.10  
Year to date precipitation 0.20 1.98  
Sea Level Pressure  
Sea Level Pressure 30.24 in    
Wind  
Wind Speed 14 mph (SE)    
Max Wind Speed 25 mph    
Max Gust Speed 33 mph    
Visibility 10 miles    
Events      
T = Trace of Precipitation, MM = Missing Value Source: NWS Daily Summary

Daily Weather History Graph

Daily Weather History Graph

Search for Another Location

Airport:

Trip Planner

Search our weather history database for the weather conditions in past years. The results will help you decide how hot, cold, wet, or windy it might be!

Date:

Astronomy

Mar. 25, 2014 Rise Set
Actual Time 7:38 AM CDT 7:59 PM CDT
Civil Twilight 7:12 AM CDT 8:25 PM CDT
Nautical Twilight 6:41 AM CDT 8:56 PM CDT
Astronomical Twilight 6:10 AM CDT 9:28 PM CDT
Moon 3:56 AM CDT (3/25) 2:37 PM CDT (3/25)
Length of Visible Light 13h 13m
Length of Day
12h 20m
Waning Crescent, 32% of the Moon is Illuminated
Mar 25
Waning Crescent
Mar 30
New
Apr 7
First Quarter
Apr 15
Full
Apr 22
Last Quarter

Hourly Weather History & Observations

Time (CDT) Temp. Windchill Dew Point Humidity Pressure Visibility Wind Dir Wind Speed Gust Speed Precip Events Conditions
12:54 AM 27.0 °F 23.0 °F 16.0 °F 63% 30.31 in 10.0 mi SSW 3.5 mph - N/A   Clear
1:54 AM 28.9 °F - 16.0 °F 58% 30.30 in 10.0 mi Calm Calm - N/A   Clear
2:54 AM 23.0 °F 14.7 °F 15.1 °F 72% 30.33 in 10.0 mi NNW 6.9 mph - N/A   Clear
3:54 AM 28.0 °F 20.0 °F 18.0 °F 66% 30.33 in 10.0 mi WNW 8.1 mph - N/A   Overcast
4:54 AM 28.9 °F 21.1 °F 18.0 °F 64% 30.34 in 10.0 mi NW 8.1 mph - N/A   Overcast
5:54 AM 30.0 °F 21.7 °F 18.0 °F 61% 30.35 in 10.0 mi North 9.2 mph - N/A   Overcast
6:54 AM 30.9 °F 22.2 °F 18.0 °F 59% 30.37 in 10.0 mi NNE 10.4 mph - N/A   Overcast
7:54 AM 28.0 °F 18.6 °F 18.0 °F 66% 30.40 in 10.0 mi NE 10.4 mph - N/A   Clear
8:54 AM 30.0 °F 20.5 °F 21.0 °F 69% 30.42 in 10.0 mi ENE 11.5 mph - N/A   Clear
9:54 AM 33.1 °F 23.0 °F 19.0 °F 56% 30.42 in 10.0 mi East 15.0 mph - N/A   Clear
10:54 AM 37.0 °F 29.3 °F 21.9 °F 54% 30.42 in 10.0 mi East 11.5 mph - N/A   Clear
11:54 AM 41.0 °F 34.3 °F 21.9 °F 47% 30.39 in 10.0 mi East 11.5 mph - N/A   Clear
12:54 PM 43.0 °F 36.8 °F 19.9 °F 40% 30.35 in 10.0 mi South 11.5 mph 18.4 mph N/A   Clear
1:54 PM 46.0 °F 39.6 °F 19.9 °F 35% 30.29 in 10.0 mi South 15.0 mph 24.2 mph N/A   Clear
2:54 PM 51.1 °F - 19.9 °F 29% 30.24 in 10.0 mi South 20.7 mph 27.6 mph N/A   Clear
3:54 PM 54.0 °F - 19.9 °F 26% 30.17 in 10.0 mi South 16.1 mph 26.5 mph N/A   Clear
4:54 PM 54.0 °F - 19.9 °F 26% 30.13 in 10.0 mi South 19.6 mph 26.5 mph N/A   Clear
5:54 PM 55.9 °F - 21.0 °F 26% 30.08 in 10.0 mi South 19.6 mph 26.5 mph N/A   Clear
6:54 PM 54.0 °F - 19.9 °F 26% 30.05 in 10.0 mi SSE 20.7 mph - N/A   Clear
7:54 PM 50.0 °F - 19.9 °F 31% 30.04 in 10.0 mi SSE 17.3 mph - N/A   Clear
8:54 PM 46.9 °F - 19.9 °F 34% 30.02 in 10.0 mi SSE 18.4 mph - N/A   Clear
9:54 PM 44.1 °F 36.2 °F 19.9 °F 38% 30.02 in 10.0 mi SSE 18.4 mph - N/A   Clear
10:54 PM 43.0 °F 35.4 °F 19.0 °F 38% 30.01 in 10.0 mi SSE 16.1 mph - N/A   Clear
11:54 PM 42.1 °F 33.9 °F 17.1 °F 37% 29.99 in 10.0 mi South 17.3 mph - N/A   Clear